FW7023 Weather Reports


Display with metric or nautical units.
time (UTC)temp
F
wind
direction
speed
MPH
gust
MPH
rain 1hr
in
rain 24hr
in
rain mn
in
humidity
%
barometer
mb
20260508013005 65 175 1.0 1.0 0.00 0.00 0.00 50 1009.6
20260508012501 65 196 1.0 2.0 0.00 0.00 0.00 50 1009.6
20260508011958 65 200 2.0 2.0 0.00 0.00 0.00 49 1009.7
20260508011457 66 185 1.0 1.0 0.00 0.00 0.00 48 1009.6
20260508010954 66 212 1.0 3.0 0.00 0.00 0.00 47 1009.8
20260508010451 66 188 2.0 2.0 0.00 0.00 0.00 47 1009.5
20260508005948 67 183 2.0 2.0 0.00 0.00 0.00 46 1009.6
20260508005444 67 198 2.0 2.0 0.00 0.00 0.00 46 1009.2
20260508004941 67 210 4.0 5.0 0.00 0.00 0.00 45 1009.5
20260508004437 67 217 2.0 3.0 0.00 0.00 0.00 45 1009.7
20260508003933 67 194 2.0 2.0 0.00 0.00 0.00 45 1009.4
20260508003431 67 188 2.0 2.0 0.00 0.00 0.00 45 1009.8
20260508002928 68 190 2.0 2.0 0.00 0.00 0.00 44 1009.7
20260508002425 68 193 3.0 3.0 0.00 0.00 0.00 44 1009.7
20260508001920 68 215 3.0 3.0 0.00 0.00 0.00 44 1009.9
20260508001417 68 216 2.0 3.0 0.00 0.00 0.00 44 1009.8
20260508000914 68 196 5.0 6.0 0.00 0.00 0.00 43 1009.6
20260508000412 68 203 2.0 3.0 0.00 0.00 0.00 44 1009.7
20260507235907 68 184 2.0 2.0 0.00 0.00 0.00 44 1010.0
20260507235404 68 183 2.0 2.0 0.00 0.00 0.00 43 1009.8
20260507234901 69 154 1.0 1.0 0.00 0.00 0.00 42 1010.2
20260507234359 69 196 3.0 5.0 0.00 0.00 0.00 42 1010.0
20260507233854 69 202 0.0 1.0 0.00 0.00 0.00 42 1010.0
20260507233351 69 164 1.0 2.0 0.00 0.00 0.00 40 1010.1
20260507232849 71 113 4.0 7.0 0.00 0.00 0.00 39 1010.0
20260507232345 71 11 0.0 1.0 0.00 0.00 0.00 41 1010.2
20260507231843 71 167 3.0 3.0 0.00 0.00 0.00 40 1010.2
20260507231339 71 158 0.0 0.0 0.00 0.00 0.00 40 1010.1
20260507230835 71 206 2.0 2.0 0.00 0.00 0.00 41 1010.1
20260507230333 71 210 1.0 3.0 0.00 0.00 0.00 39 1010.1
20260507225833 71 205 2.0 2.0 0.00 0.00 0.00 40 1010.2
20260507225329 70 214 4.0 6.0 0.00 0.00 0.00 41 1010.1
20260507224825 71 191 7.0 10.0 0.00 0.00 0.00 40 1010.5
20260507224322 71 157 0.0 0.0 0.00 0.00 0.00 41 1010.1
20260507223818 71 178 5.0 7.0 0.00 0.00 0.00 39 1010.0
20260507223315 71 240 6.0 9.0 0.00 0.00 0.00 39 1010.5
20260507222812 71 218 5.0 7.0 0.00 0.00 0.00 40 1010.2
20260507222308 71 291 3.0 5.0 0.00 0.00 0.00 40 1010.2
20260507221805 71 219 6.0 7.0 0.00 0.00 0.00 41 1010.5
20260507221302 70 187 2.0 2.0 0.00 0.00 0.00 42 1010.4
20260507220758 70 217 4.0 6.0 0.00 0.00 0.00 42 1010.1
20260507220256 70 258 7.0 9.0 0.00 0.00 0.00 43 1010.5
20260507215752 69 245 6.0 7.0 0.00 0.00 0.00 42 1010.7
20260507215250 69 218 6.0 7.0 0.00 0.00 0.00 43 1010.8
20260507214747 69 67 3.0 5.0 0.00 0.00 0.00 41 1010.6
20260507214244 70 122 3.0 5.0 0.00 0.00 0.00 42 1010.6
20260507213739 69 242 4.0 5.0 0.00 0.00 0.00 42 1010.9
20260507213236 69 216 10.0 15.0 0.00 0.00 0.00 41 1011.0
20260507212733 69 137 2.0 2.0 0.00 0.00 0.00 42 1010.7
20260507212229 70 175 5.0 8.0 0.00 0.00 0.00 41 1010.9
20260507211726 70 212 3.0 6.0 0.00 0.00 0.00 42 1010.9
20260507211222 71 191 2.0 3.0 0.00 0.00 0.00 40 1011.0
20260507210719 70 51 2.0 2.0 0.00 0.00 0.00 42 1011.2
20260507210216 70 198 5.0 9.0 0.00 0.00 0.00 41 1011.4
20260507205712 70 60 1.0 2.0 0.00 0.00 0.00 42 1011.4
20260507205209 69 349 3.0 7.0 0.00 0.00 0.00 43 1011.6
20260507204705 69 78 2.0 2.0 0.00 0.00 0.00 43 1011.6
20260507204203 69 99 3.0 5.0 0.00 0.00 0.00 45 1011.8
20260507203701 68 173 1.0 2.0 0.00 0.00 0.00 43 1011.8
20260507203158 69 176 5.0 8.0 0.00 0.00 0.00 43 1011.9
20260507202653 68 160 3.0 5.0 0.00 0.00 0.00 46 1012.0
20260507202150 68 190 7.0 9.0 0.00 0.00 0.00 45 1012.1
20260507201645 68 217 4.0 6.0 0.00 0.00 0.00 44 1012.0
20260507201142 68 208 1.0 2.0 0.00 0.00 0.00 44 1012.2
20260507200639 67 187 2.0 3.0 0.00 0.00 0.00 46 1012.3
20260507200135 68 207 5.0 6.0 0.00 0.00 0.00 45 1012.3
20260507195631 68 206 3.0 5.0 0.00 0.00 0.00 44 1012.4
20260507195129 67 272 5.0 8.0 0.00 0.00 0.00 45 1012.6
20260507194626 68 204 7.0 8.0 0.00 0.00 0.00 45 1012.4
20260507194120 68 223 4.0 6.0 0.00 0.00 0.00 44 1012.7
20260507193618 68 204 4.0 6.0 0.00 0.00 0.00 44 1012.6
20260507193115 68 352 5.0 9.0 0.00 0.00 0.00 46 1012.7
20260507192611 67 126 1.0 2.0 0.00 0.00 0.00 46 1012.6
20260507192108 66 198 7.0 9.0 0.00 0.00 0.00 47 1012.7
20260507191604 66 208 4.0 5.0 0.00 0.00 0.00 47 1012.9
20260507191101 67 174 3.0 3.0 0.00 0.00 0.00 45 1012.9
20260507190558 67 260 3.0 7.0 0.00 0.00 0.00 46 1013.3
20260507190057 67 165 3.0 5.0 0.00 0.00 0.00 46 1012.9
20260507185555 66 218 1.0 3.0 0.00 0.00 0.00 47 1013.2
20260507185051 65 165 0.0 1.0 0.00 0.00 0.00 49 1013.2
20260507184549 66 203 7.0 8.0 0.00 0.00 0.00 46 1013.6
20260507184047 65 225 5.0 6.0 0.00 0.00 0.00 48 1013.6
20260507183542 65 225 7.0 8.0 0.00 0.00 0.00 48 1013.7
20260507183040 66 193 4.0 8.0 0.00 0.00 0.00 47 1013.5
20260507182536 65 165 6.0 9.0 0.00 0.00 0.00 48 1013.5
20260507182032 66 233 11.0 14.0 0.00 0.00 0.00 46 1013.6
20260507181529 66 208 4.0 6.0 0.00 0.00 0.00 48 1013.7
20260507181025 66 345 1.0 2.0 0.00 0.00 0.00 49 1013.9
20260507180522 66 171 6.0 8.0 0.00 0.00 0.00 46 1014.1
20260507180019 66 45 1.0 2.0 0.00 0.00 0.00 49 1014.1
20260507175515 66 183 3.0 6.0 0.00 0.00 0.00 47 1013.9
20260507175013 66 192 5.0 8.0 0.00 0.00 0.00 46 1014.1
20260507174510 64 209 4.0 8.0 0.00 0.00 0.00 50 1014.2
20260507174008 65 194 4.0 7.0 0.00 0.00 0.00 48 1014.1
20260507173504 64 226 4.0 7.0 0.00 0.00 0.00 48 1014.2
20260507173001 64 172 1.0 2.0 0.00 0.00 0.00 50 1014.2
20260507172457 64 119 1.0 2.0 0.00 0.00 0.00 48 1014.0
20260507171954 64 159 3.0 7.0 0.00 0.00 0.00 49 1014.2
20260507171449 64 217 2.0 3.0 0.00 0.00 0.00 48 1014.4
20260507170947 63 353 2.0 2.0 0.00 0.00 0.00 50 1014.5
20260507170444 64 170 4.0 7.0 0.00 0.00 0.00 49 1014.9
20260507165940 64 185 1.0 1.0 0.00 0.00 0.00 49 1015.0
20260507165436 65 120 2.0 5.0 0.00 0.00 0.00 47 1015.0
20260507164932 65 186 6.0 8.0 0.00 0.00 0.00 48 1015.1
20260507164429 64 141 1.0 1.0 0.00 0.00 0.00 49 1015.1
20260507163926 64 240 5.0 8.0 0.00 0.00 0.00 48 1015.2
20260507163424 64 119 1.0 2.0 0.00 0.00 0.00 48 1015.4
20260507162920 64 314 5.0 7.0 0.00 0.00 0.00 47 1015.2
20260507162415 64 224 6.0 8.0 0.00 0.00 0.00 49 1015.2
20260507161913 63 169 2.0 2.0 0.00 0.00 0.00 49 1015.3
20260507161409 64 283 2.0 3.0 0.00 0.00 0.00 49 1015.3
20260507160906 64 173 2.0 2.0 0.00 0.00 0.00 50 1015.2
20260507160402 63 288 1.0 1.0 0.00 0.00 0.00 49 1015.4
20260507155858 63 166 2.0 3.0 0.00 0.00 0.00 50 1015.2
20260507155354 64 101 2.0 6.0 0.00 0.00 0.00 48 1015.4
20260507154851 63 137 1.0 2.0 0.00 0.00 0.00 49 1015.5
20260507154348 63 195 5.0 7.0 0.00 0.00 0.00 50 1015.4
20260507153845 63 239 3.0 5.0 0.00 0.00 0.00 49 1015.5
20260507153341 62 227 6.0 10.0 0.00 0.00 0.00 50 1015.6
20260507152838 62 149 2.0 2.0 0.00 0.00 0.00 51 1015.6
20260507152334 62 76 3.0 6.0 0.00 0.00 0.00 51 1015.7
20260507151831 62 31 1.0 2.0 0.00 0.00 0.00 51 1015.7
20260507151327 62 222 4.0 8.0 0.00 0.00 0.00 52 1015.9
20260507150824 61 15 2.0 5.0 0.00 0.00 0.00 53 1015.8
20260507150320 61 226 0.0 1.0 0.00 0.00 0.00 53 1015.9
20260507145817 60 139 1.0 1.0 0.00 0.00 0.00 55 1016.0
20260507145313 60 166 4.0 6.0 0.00 0.00 0.00 54 1015.8
20260507144811 60 218 3.0 5.0 0.00 0.00 0.00 55 1016.1
20260507144308 60 295 3.0 3.0 0.00 0.00 0.00 57 1015.9
20260507143804 59 207 3.0 3.0 0.00 0.00 0.00 57 1015.9
20260507143302 58 206 4.0 5.0 0.00 0.00 0.00 58 1015.9
20260507142757 58 189 4.0 6.0 0.00 0.00 0.00 59 1015.9
20260507142254 58 207 5.0 7.0 0.00 0.00 0.00 60 1016.0
20260507141750 57 192 1.0 2.0 0.00 0.00 0.00 62 1016.1
20260507141248 57 291 2.0 2.0 0.00 0.00 0.00 63 1016.2
20260507140743 56 171 0.0 1.0 0.00 0.00 0.00 63 1016.0
20260507140241 56 219 6.0 8.0 0.00 0.00 0.00 63 1016.3
20260507135738 55 171 1.0 1.0 0.00 0.00 0.00 66 1016.2
20260507135235 55 166 0.0 0.0 0.00 0.00 0.00 67 1016.0
20260507134731 54 148 1.0 2.0 0.00 0.00 0.00 67 1016.2
20260507134222 54 143 1.0 2.0 0.00 0.00 0.00 68 1016.2
20260507133718 53 167 1.0 1.0 0.00 0.00 0.00 68 1016.1
20260507133216 53 243 1.0 2.0 0.00 0.00 0.00 69 1015.9
20260507132713 52 194 3.0 3.0 0.00 0.00 0.00 69 1016.0
20260507132209 52 192 0.0 1.0 0.00 0.00 0.00 70 1016.1
20260507131706 51 169 0.0 0.0 0.00 0.00 0.00 70 1016.2
20260507131204 51 186 1.0 2.0 0.00 0.00 0.00 70 1016.3
20260507130700 50 168 2.0 3.0 0.00 0.00 0.00 71 1016.5
20260507130157 50 191 0.0 1.0 0.00 0.00 0.00 71 1016.4
20260507125656 49 176 1.0 1.0 0.00 0.00 0.00 73 1016.5
20260507125154 48 170 0.0 1.0 0.00 0.00 0.00 74 1016.6
20260507124650 48 267 0.0 1.0 0.00 0.00 0.00 75 1016.5
20260507124147 47 197 1.0 2.0 0.00 0.00 0.00 77 1016.5
20260507123645 46 178 0.0 0.0 0.00 0.00 0.00 81 1016.3
20260507123142 45 158 0.0 0.0 0.00 0.00 0.00 85 1016.4
20260507122637 44 170 0.0 0.0 0.00 0.00 0.00 92 1016.5
20260507122133 42 162 0.0 0.0 0.00 0.00 0.00 94 1016.5
20260507121629 42 159 0.0 0.0 0.00 0.00 0.00 96 1016.9
20260507121126 41 158 0.0 0.0 0.00 0.00 0.00 96 1016.5
20260507120622 40 158 0.0 0.0 0.00 0.00 0.00 96 1016.6
20260507120119 39 158 0.0 0.0 0.00 0.00 0.00 96 1016.3
20260507115615 39 158 0.0 0.0 0.00 0.00 0.00 96 1016.3
20260507115111 39 158 0.0 0.0 0.00 0.00 0.00 96 1016.5
20260507114607 39 158 0.0 0.0 0.00 0.00 0.00 96 1016.2
20260507114104 39 158 0.0 0.0 0.00 0.00 0.00 96 1016.4
20260507113601 39 158 0.0 0.0 0.00 0.00 0.00 96 1016.3
20260507113058 38 158 0.0 0.0 0.00 0.00 0.00 96 1016.5
20260507112556 38 158 0.0 0.0 0.00 0.00 0.00 96 1016.5
20260507112053 38 158 0.0 0.0 0.00 0.00 0.00 96 1016.4
20260507111550 38 158 0.0 0.0 0.00 0.00 0.00 96 1016.5
20260507111046 38 158 0.0 0.0 0.00 0.00 0.00 96 1016.2
20260507110543 38 158 0.0 0.0 0.00 0.00 0.00 96 1016.3
20260507110039 38 158 0.0 0.0 0.00 0.00 0.00 96 1016.1
20260507105536 38 158 0.0 0.0 0.00 0.00 0.00 96 1016.2
20260507105032 38 158 0.0 0.0 0.00 0.00 0.00 96 1016.2
20260507104530 38 158 0.0 0.0 0.00 0.00 0.00 96 1016.2
20260507104026 38 158 0.0 0.0 0.00 0.00 0.00 96 1016.3
20260507103522 38 158 0.0 0.0 0.00 0.00 0.00 96 1016.2
20260507103019 38 158 0.0 0.0 0.00 0.00 0.00 95 1016.2
20260507102516 38 158 0.0 0.0 0.00 0.00 0.00 95 1016.2
20260507102012 38 158 0.0 0.0 0.00 0.00 0.00 95 1016.4
20260507101507 39 158 0.0 0.0 0.00 0.00 0.00 95 1016.2
20260507101004 38 158 0.0 0.0 0.00 0.00 0.00 95 1016.3
20260507100501 39 158 0.0 0.0 0.00 0.00 0.00 95 1016.1
20260507095959 39 158 0.0 0.0 0.00 0.00 0.00 95 1016.2
20260507095457 39 158 0.0 0.0 0.00 0.00 0.00 95 1016.5
20260507094948 39 158 0.0 0.0 0.00 0.00 0.00 95 1016.5
20260507094444 39 158 0.0 0.0 0.00 0.00 0.00 95 1016.5
20260507093941 39 158 0.0 0.0 0.00 0.00 0.00 95 1016.6
20260507093439 39 158 0.0 0.0 0.00 0.00 0.00 95 1016.5
20260507092937 39 158 0.0 0.0 0.00 0.00 0.00 95 1016.3
20260507092433 39 158 0.0 0.0 0.00 0.00 0.00 95 1016.6
20260507091930 39 158 0.0 0.0 0.00 0.00 0.00 95 1016.5
20260507091426 39 158 0.0 0.0 0.00 0.00 0.00 95 1016.4
20260507090922 39 158 0.0 0.0 0.00 0.00 0.00 95 1016.7
20260507090418 39 158 0.0 0.0 0.00 0.00 0.00 94 1016.6
20260507085915 39 158 0.0 0.0 0.00 0.00 0.00 94 1016.6
20260507085412 39 158 0.0 0.0 0.00 0.00 0.00 94 1016.6
20260507084909 39 158 0.0 0.0 0.00 0.00 0.00 94 1016.6
20260507084406 39 158 0.0 0.0 0.00 0.00 0.00 94 1016.5
20260507083903 39 158 0.0 0.0 0.00 0.00 0.00 94 1016.5
20260507083359 39 158 0.0 0.0 0.00 0.00 0.00 94 1016.6
20260507082856 40 158 0.0 0.0 0.00 0.00 0.00 94 1016.6
20260507082351 40 158 0.0 0.0 0.00 0.00 0.00 94 1016.6
20260507081849 40 158 0.0 0.0 0.00 0.00 0.00 94 1016.6
20260507081345 40 158 0.0 0.0 0.00 0.00 0.00 94 1016.8
20260507080842 40 158 0.0 0.0 0.00 0.00 0.00 93 1016.7
20260507080338 40 158 0.0 0.0 0.00 0.00 0.00 93 1016.6
20260507075833 40 158 0.0 0.0 0.00 0.00 0.00 93 1016.6
20260507075330 40 158 0.0 0.0 0.00 0.00 0.00 93 1016.4
20260507074826 40 158 0.0 0.0 0.00 0.00 0.00 93 1016.6
20260507074324 41 158 0.0 0.0 0.00 0.00 0.00 93 1016.3
20260507073821 41 158 0.0 0.0 0.00 0.00 0.00 93 1016.6
20260507073318 41 158 0.0 0.0 0.00 0.00 0.00 92 1016.6
20260507072815 41 158 0.0 0.0 0.00 0.00 0.00 92 1016.8
20260507072312 41 158 0.0 0.0 0.00 0.00 0.00 92 1016.9
20260507071809 42 158 0.0 0.0 0.00 0.00 0.00 92 1016.8
20260507071306 42 158 0.0 0.0 0.00 0.00 0.00 92 1017.0
20260507070802 42 158 0.0 0.0 0.00 0.00 0.00 92 1017.1
20260507070300 42 158 0.0 0.0 0.00 0.00 0.00 91 1017.1
20260507065756 42 158 0.0 0.0 0.00 0.00 0.00 91 1017.0
20260507065253 42 158 0.0 0.0 0.00 0.00 0.00 91 1016.9
20260507064750 42 158 0.0 0.0 0.00 0.00 0.00 91 1017.0
20260507064249 42 158 0.0 0.0 0.00 0.00 0.00 91 1017.0
20260507063746 42 158 0.0 0.0 0.00 0.00 0.00 91 1017.4
20260507063243 42 158 0.0 0.0 0.00 0.00 0.00 91 1017.2
20260507062740 42 158 0.0 0.0 0.00 0.00 0.00 91 1017.2
20260507062237 42 158 0.0 0.0 0.00 0.00 0.00 91 1017.2
20260507061735 42 158 0.0 0.0 0.00 0.00 0.00 91 1017.1
20260507061232 42 158 0.0 0.0 0.00 0.00 0.00 91 1017.2
20260507060731 42 158 0.0 0.0 0.00 0.00 0.00 91 1017.4
20260507060227 42 158 0.0 0.0 0.00 0.00 0.00 91 1017.0
20260507055723 42 159 0.0 0.0 0.00 0.00 0.00 91 1017.4
20260507055219 42 158 0.0 0.0 0.00 0.00 0.00 91 1017.3
20260507054715 42 158 0.0 0.0 0.00 0.00 0.00 91 1017.3
20260507054212 42 158 0.0 0.0 0.00 0.00 0.00 91 1017.3
20260507053710 42 158 0.0 0.0 0.00 0.00 0.00 91 1017.3
20260507053208 42 158 0.0 0.0 0.00 0.00 0.00 91 1017.3
20260507052706 42 158 0.0 0.0 0.00 0.00 0.00 91 1017.2
20260507052202 42 158 0.0 0.0 0.00 0.00 0.00 91 1017.2
20260507051700 42 158 0.0 0.0 0.00 0.00 0.00 90 1017.2
20260507051156 42 158 0.0 0.0 0.00 0.00 0.00 90 1017.3
20260507050653 42 158 0.0 0.0 0.00 0.00 0.00 90 1017.2
20260507050150 42 158 0.0 0.0 0.00 0.00 0.00 90 1017.3
20260507045647 42 158 0.0 0.0 0.00 0.01 0.01 90 1017.3
20260507045143 42 158 0.0 0.0 0.00 0.01 0.01 89 1017.4
20260507044640 42 158 0.0 0.0 0.00 0.01 0.01 89 1017.3
20260507044137 42 158 0.0 0.0 0.00 0.01 0.01 88 1017.3
20260507043633 42 158 0.0 0.0 0.00 0.01 0.01 88 1017.3
20260507043130 42 158 0.0 0.0 0.00 0.01 0.01 88 1017.2
20260507042626 42 158 0.0 0.0 0.00 0.01 0.01 87 1017.2
20260507042121 42 158 0.0 0.0 0.00 0.01 0.01 87 1017.3
20260507041619 43 158 0.0 0.0 0.00 0.01 0.01 86 1017.2
20260507041115 43 159 0.0 0.0 0.00 0.01 0.01 86 1017.3
20260507040612 43 158 0.0 0.0 0.00 0.01 0.01 86 1017.5
20260507040109 43 158 0.0 0.0 0.00 0.01 0.01 85 1017.4
20260507035605 43 158 0.0 0.0 0.00 0.01 0.01 84 1017.9
20260507035101 43 158 0.0 0.0 0.00 0.01 0.01 83 1017.7
20260507034558 43 158 0.0 0.0 0.00 0.01 0.01 82 1017.4
20260507034056 43 158 0.0 0.0 0.00 0.01 0.01 82 1017.4
20260507033554 43 158 0.0 0.0 0.00 0.01 0.01 80 1017.3
20260507033050 44 158 0.0 0.0 0.00 0.01 0.01 79 1017.4
20260507032548 44 158 0.0 0.0 0.00 0.01 0.01 78 1017.4
20260507032044 44 158 0.0 0.0 0.00 0.01 0.01 77 1017.4
20260507031540 44 158 0.0 0.0 0.00 0.01 0.01 76 1017.5
20260507031037 45 158 0.0 0.0 0.00 0.01 0.01 76 1017.5
20260507030534 45 158 0.0 0.0 0.00 0.01 0.01 74 1017.3
20260507030032 46 158 0.0 0.0 0.00 0.01 0.01 73 1017.3
20260507025529 46 158 0.0 0.0 0.00 0.01 0.01 71 1017.3
20260507025026 46 158 0.0 0.0 0.00 0.01 0.01 70 1017.2
20260507024524 46 158 0.0 0.0 0.00 0.01 0.01 68 1017.2
20260507024020 47 157 0.0 0.0 0.00 0.01 0.01 68 1017.0
20260507023516 47 157 0.0 0.0 0.00 0.01 0.01 66 1017.2
20260507023014 48 158 0.0 0.0 0.00 0.01 0.01 65 1017.0
20260507022511 48 158 0.0 0.0 0.00 0.01 0.01 64 1017.4
20260507022006 48 158 0.0 0.0 0.00 0.01 0.01 64 1017.0
20260507021502 48 158 0.0 0.0 0.00 0.01 0.01 62 1017.0
20260507020959 48 158 0.0 0.0 0.00 0.01 0.01 62 1016.8
20260507020456 49 154 0.0 0.0 0.00 0.01 0.01 61 1016.8
20260507015953 49 157 0.0 0.0 0.00 0.01 0.01 60 1016.8
20260507015451 50 163 0.0 1.0 0.00 0.01 0.01 59 1017.0
20260507014942 50 164 0.0 0.0 0.00 0.01 0.01 58 1016.9
20260507014439 51 161 0.0 0.0 0.00 0.01 0.01 57 1017.0
20260507013935 51 155 0.0 0.0 0.00 0.01 0.01 57 1016.6
20260507013432 52 154 0.0 0.0 0.00 0.01 0.01 54 1016.7